Location: Newark
(48.1500°N, 2.9667°W)
Time: 02:30:50
(UTC+00:00)

Transit 2A - Pass Details

Date: 31 January 2020
Orbit: 600 x 959 km, 66.7° (Epoch: 19 February)

Event Time Altitude Azimuth Distance (km) Brightness Sun altitude
Rises 04:49:48 0° 310° (NW) 3,038 - -28.8°
Reaches altitude 10° 04:52:48 10° 290° (WNW) 2,182 - -28.3°
Maximum altitude 04:55:52 17° 251° (WSW) 1,838 - -27.8°
Drops below altitude 10° 04:59:05 10° 213° (SSW) 2,317 - -27.2°
Sets 05:02:25 0° 194° (SSW) 3,320 - -26.7°
